CW5283 Weather Reports


time (UTC)temp
C
wind
direction
speed
KPH
gust
KPH
rain 1hr
cm
rain 24hr
cm
rain mn
cm
humidity
%
barometer
mb
20260507113037 12 49 0.0 0.0 0.00 0.00 0.00 78 1012.1
20260507112801 12 49 0.0 0.0 0.00 0.00 0.00 78 1012.1
20260507112521 12 49 0.0 0.0 0.00 0.00 0.00 78 1012.3
20260507112021 12 49 0.0 0.0 0.00 0.00 0.00 77 1012.3
20260507111724 12 49 0.0 0.0 0.00 0.00 0.00 77 1012.3
20260507111526 12 49 0.0 0.0 0.00 0.00 0.00 77 1012.3
20260507111027 12 49 0.0 0.0 0.00 0.00 0.00 77 1012.2
20260507110731 12 49 0.0 0.0 0.00 0.00 0.00 77 1012.2
20260507110533 12 49 0.0 0.0 0.00 0.00 0.00 77 1012.2
20260507110037 12 49 0.0 0.0 0.00 0.00 0.00 77 1012.2
20260507105723 12 49 0.0 0.0 0.00 0.00 0.00 77 1012.2
20260507105521 12 49 0.0 0.0 0.00 0.00 0.00 77 1012.2
20260507105042 12 49 0.0 0.0 0.00 0.00 0.00 77 1012.2
20260507104745 12 49 0.0 0.0 0.00 0.00 0.00 77 1012.2
20260507104525 12 49 0.0 0.0 0.00 0.00 0.00 77 1012.2
20260507104025 12 49 0.0 0.0 0.00 0.00 0.00 77 1012.2
20260507103728 12 49 0.0 0.0 0.00 0.00 0.00 77 1012.2
20260507103528 12 49 0.0 0.0 0.00 0.00 0.00 77 1012.2
20260507103029 12 49 0.0 0.0 0.00 0.00 0.00 77 1012.2
20260507102752 12 49 0.0 0.0 0.00 0.00 0.00 77 1012.2
20260507102534 12 49 0.0 0.0 0.00 0.00 0.00 77 1012.2
20260507102035 12 49 0.0 0.0 0.00 0.00 0.00 77 1012.2
20260507101724 12 49 0.0 0.0 0.00 0.00 0.00 77 1012.2
20260507101520 12 49 0.0 0.0 0.00 0.00 0.00 77 1012.2
20260507101042 12 49 0.0 0.0 0.00 0.00 0.00 78 1012.3
20260507100746 12 40 0.0 0.0 0.00 0.00 0.00 78 1012.3
20260507100530 12 39 0.0 0.0 0.00 0.00 0.00 78 1012.3
20260507100058 12 37 0.0 0.0 0.00 0.00 0.00 78 1012.3
20260507095721 12 37 0.0 0.0 0.00 0.00 0.00 78 1012.5
20260507095525 12 37 0.0 0.0 0.00 0.00 0.00 77 1012.5
20260507095031 12 37 0.0 0.0 0.00 0.00 0.00 77 1012.5
20260507094740 12 37 0.0 0.0 0.00 0.00 0.00 77 1012.5
20260507094536 12 37 0.0 0.0 0.00 0.00 0.00 77 1012.5
20260507094036 12 37 0.0 0.0 0.00 0.00 0.00 77 1012.7
20260507093749 12 37 0.0 0.0 0.00 0.00 0.00 77 1012.7
20260507093526 12 37 0.0 0.0 0.00 0.00 0.00 77 1012.7
20260507093028 12 37 0.0 0.0 0.00 0.00 0.00 77 1012.7
20260507092737 12 37 0.0 0.0 0.00 0.00 0.00 77 1012.7
20260507092534 12 37 0.0 0.0 0.00 0.00 0.00 77 1012.9
20260507092038 12 37 0.0 0.0 0.00 0.00 0.00 77 1012.9
20260507091727 12 37 0.0 0.0 0.00 0.00 0.00 77 1012.9
20260507091523 12 37 0.0 0.0 0.00 0.00 0.00 77 1012.9
20260507091026 13 37 0.0 0.0 0.00 0.00 0.00 77 1013.0
20260507090736 13 37 0.0 0.0 0.00 0.00 0.00 77 1013.0
20260507090554 13 37 0.0 0.0 0.00 0.00 0.00 77 1013.0
20260507090036 13 37 0.0 0.0 0.00 0.00 0.00 77 1013.0
20260507085723 13 38 0.0 0.0 0.00 0.00 0.00 77 1013.1
20260507085522 13 37 0.0 0.0 0.00 0.00 0.00 77 1013.1
20260507085025 13 38 0.0 0.0 0.00 0.00 0.00 77 1013.1
20260507084737 13 38 0.0 0.0 0.00 0.00 0.00 77 1013.1
20260507084537 13 38 0.0 0.0 0.00 0.00 0.00 77 1013.1
20260507084041 13 36 0.0 0.0 0.00 0.00 0.00 77 1013.2
20260507083749 13 36 0.0 0.0 0.00 0.00 0.00 77 1013.2
20260507083525 13 36 0.0 0.0 0.00 0.00 0.00 77 1013.2
20260507083027 13 36 0.0 0.0 0.00 0.00 0.00 77 1013.2
20260507082738 13 36 0.0 0.0 0.00 0.00 0.00 77 1013.2
20260507082536 13 36 0.0 0.0 0.00 0.00 0.00 76 1013.3
20260507082023 13 36 0.0 0.0 0.00 0.00 0.00 76 1013.3
20260507081729 13 36 0.0 0.0 0.00 0.00 0.00 76 1013.3
20260507081546 13 36 0.0 0.0 0.00 0.00 0.00 76 1013.3
20260507081032 13 36 0.0 0.0 0.00 0.00 0.00 76 1013.2
20260507080738 13 36 0.0 0.0 0.00 0.00 0.00 76 1013.2
20260507080520 13 36 0.0 0.0 0.00 0.00 0.00 76 1013.2
20260507080024 13 36 0.0 0.0 0.00 0.00 0.00 76 1013.2
20260507075728 13 36 0.0 0.0 0.00 0.00 0.00 75 1013.2
20260507075553 13 36 0.0 0.0 0.00 0.00 0.00 75 1013.2
20260507075035 13 36 0.0 0.0 0.00 0.00 0.00 75 1013.2
20260507074741 13 36 0.0 0.0 0.00 0.00 0.00 75 1013.2
20260507074523 13 36 0.0 0.0 0.00 0.00 0.00 75 1013.2
20260507074027 13 36 0.0 0.0 0.00 0.00 0.00 75 1013.2
20260507073731 13 36 0.0 0.0 0.00 0.00 0.00 75 1013.2
20260507073535 13 36 0.0 0.0 0.00 0.00 0.00 75 1013.2
20260507073038 13 33 0.0 0.0 0.00 0.00 0.00 75 1013.2
20260507072726 13 32 0.0 0.0 0.00 0.00 0.00 75 1013.2
20260507072528 13 32 0.0 0.0 0.00 0.00 0.00 75 1013.2
20260507072033 13 32 0.0 0.0 0.00 0.00 0.00 75 1013.2
20260507071724 13 32 0.0 0.0 0.00 0.00 0.00 75 1013.2
20260507071524 13 32 0.0 0.0 0.00 0.00 0.00 75 1013.2
20260507071029 13 32 0.0 0.0 0.00 0.00 0.00 75 1013.3
20260507070739 13 32 0.0 0.0 0.00 0.00 0.00 74 1013.3
20260507070540 14 32 0.0 0.0 0.00 0.00 0.00 74 1013.3
20260507070022 14 32 0.0 0.0 0.00 0.00 0.00 74 1013.3
20260507065748 14 32 0.0 0.0 0.00 0.00 0.00 74 1013.4
20260507065549 14 32 0.0 0.0 0.00 0.00 0.00 74 1013.4
20260507065051 14 32 0.0 0.0 0.00 0.00 0.00 74 1013.4
20260507064722 14 32 0.0 0.0 0.00 0.00 0.00 74 1013.4
20260507064519 14 32 0.0 0.0 0.00 0.00 0.00 74 1013.4
20260507064021 14 32 0.0 0.0 0.00 0.00 0.00 74 1013.4
20260507063730 14 32 0.0 0.0 0.00 0.00 0.00 74 1013.4
20260507063531 14 32 0.0 0.0 0.00 0.00 0.00 74 1013.4
20260507063033 14 32 0.0 0.0 0.00 0.00 0.00 74 1013.4
20260507062720 14 32 0.0 0.0 0.00 0.00 0.00 74 1013.3
20260507062538 14 32 0.0 0.0 0.00 0.00 0.00 74 1013.3
20260507062020 14 32 0.0 0.0 0.00 0.00 0.00 74 1013.3
20260507061730 14 32 0.0 0.0 0.00 0.00 0.00 74 1013.3
20260507061528 14 32 0.0 0.0 0.00 0.00 0.00 74 1013.3
20260507061031 14 32 0.0 0.0 0.00 0.00 0.00 74 1013.6
20260507060723 14 32 0.0 0.0 0.00 0.00 0.00 74 1013.6
20260507060520 14 32 0.0 0.0 0.00 0.00 0.00 74 1013.6
20260507060029 14 31 0.0 0.0 0.00 0.00 0.00 74 1013.6
20260507055732 14 31 0.0 0.0 0.00 0.00 0.00 74 1013.6
20260507055537 14 31 0.0 0.0 0.00 0.00 0.00 74 1013.6
20260507055038 14 31 0.0 0.0 0.00 0.00 0.00 74 1013.6
20260507054722 14 31 0.0 0.0 0.00 0.00 0.00 74 1013.6
20260507054527 14 17 0.0 0.0 0.00 0.00 0.00 74 1013.6
20260507054050 14 14 0.0 0.0 0.00 0.00 0.00 74 1013.6
20260507053734 14 13 0.0 0.0 0.00 0.00 0.00 74 1013.6
20260507053536 14 339 0.0 0.0 0.00 0.00 0.00 74 1013.6
20260507053038 14 333 0.0 0.0 0.00 0.00 0.00 74 1013.6
20260507052721 14 333 0.0 0.0 0.00 0.00 0.00 74 1013.4
20260507052524 14 333 0.0 0.0 0.00 0.00 0.00 74 1013.4
20260507052027 14 332 0.0 0.0 0.00 0.00 0.00 74 1013.4
20260507051752 14 282 0.0 0.0 0.00 0.00 0.00 74 1013.4
20260507051533 14 282 0.0 0.0 0.00 0.00 0.00 74 1013.4
20260507051055 14 282 0.0 0.0 0.00 0.00 0.00 73 1013.5
20260507050759 14 282 0.0 0.0 0.00 0.00 0.00 73 1013.5
20260507050520 14 282 0.0 0.0 0.00 0.00 0.00 73 1013.5
20260507050023 14 282 0.0 0.0 0.00 0.00 0.00 73 1013.5
20260507045727 14 282 0.0 0.0 0.00 0.00 0.00 73 1013.5
20260507045532 14 282 0.0 0.0 0.00 0.00 0.00 73 1013.5
20260507045035 15 282 0.0 0.0 0.00 0.00 0.00 73 1013.5
20260507044724 15 282 0.0 0.0 0.00 0.00 0.00 72 1013.5
20260507044542 15 281 0.0 0.0 0.00 0.00 0.00 72 1013.5
20260507044024 15 278 0.0 0.0 0.00 0.00 0.00 72 1013.5
20260507043736 15 278 0.0 0.0 0.00 0.00 0.00 72 1013.5
20260507043516 15 278 0.0 0.0 0.00 0.00 0.00 72 1013.5
20260507043043 15 278 0.0 0.0 0.00 0.00 0.00 72 1013.5
20260507042749 15 278 0.0 0.0 0.00 0.00 0.00 72 1013.5
20260507042528 15 278 0.0 0.0 0.00 0.00 0.00 72 1013.5
20260507042030 15 278 0.0 0.0 0.00 0.00 0.00 72 1013.5
20260507041722 15 278 0.0 0.0 0.00 0.00 0.00 72 1013.5
20260507041519 15 278 0.0 0.0 0.00 0.00 0.00 72 1013.5
20260507041024 15 278 0.0 0.0 0.00 0.00 0.00 71 1013.5
20260507040732 15 278 0.0 0.0 0.00 0.00 0.00 71 1013.5
20260507040528 15 278 0.0 0.0 0.00 0.00 0.00 71 1013.5
20260507040034 15 278 0.0 0.0 0.00 0.00 0.00 71 1013.5
20260507035724 15 278 0.0 0.0 0.00 0.00 0.00 71 1013.4
20260507035524 15 278 0.0 0.0 0.00 0.00 0.00 71 1013.4
20260507035027 15 278 0.0 0.0 0.00 0.00 0.00 71 1013.4
20260507034735 15 278 0.0 0.0 0.00 0.00 0.00 71 1013.4
20260507034531 15 278 0.0 0.0 0.00 0.00 0.00 71 1013.4
20260507034016 15 278 0.0 0.0 0.00 0.00 0.00 71 1013.2
20260507033729 15 278 0.0 0.0 0.00 0.00 0.00 71 1013.2
20260507033527 15 278 0.0 0.0 0.00 0.00 0.00 71 1013.2
20260507033034 16 278 0.0 0.0 0.00 0.00 0.00 71 1013.2
20260507032717 16 277 0.0 0.0 0.00 0.00 0.00 70 1013.2
20260507032521 16 277 0.0 0.0 0.00 0.00 0.00 70 1013.2
20260507032023 16 277 0.0 0.0 0.00 0.00 0.00 69 1013.2
20260507031730 16 277 0.0 0.0 0.00 0.00 0.00 69 1013.2
20260507031556 16 277 0.0 0.0 0.00 0.00 0.00 68 1013.2
20260507031035 16 277 0.0 0.0 0.00 0.00 0.00 68 1013.1
20260507030720 16 277 0.0 0.0 0.00 0.00 0.00 67 1013.1
20260507030520 16 277 0.0 0.0 0.00 0.00 0.00 67 1013.1
20260507030021 16 269 0.0 0.0 0.00 0.00 0.00 66 1013.1
20260507025724 16 266 0.0 0.0 0.00 0.00 0.00 66 1012.8
20260507025524 16 266 0.0 0.0 0.00 0.00 0.00 66 1012.8
20260507025026 16 266 0.0 0.0 0.00 0.00 0.00 65 1012.8
20260507024750 16 266 0.0 0.0 0.00 0.00 0.00 65 1012.8
20260507024534 16 266 0.0 0.0 0.00 0.00 0.00 65 1012.8
20260507024036 17 266 0.0 0.0 0.00 0.00 0.00 64 1012.7
20260507023724 17 266 0.0 0.0 0.00 0.00 0.00 64 1012.7
20260507023542 17 266 0.0 0.0 0.00 0.00 0.00 63 1012.7
20260507023026 17 288 0.0 0.0 0.00 0.00 0.00 62 1012.7
20260507022732 17 292 0.0 0.0 0.00 0.00 0.00 62 1012.6
20260507022529 17 289 0.0 0.0 0.00 0.00 0.00 62 1012.6
20260507022029 17 289 0.0 0.0 0.00 0.00 0.00 62 1012.6
20260507021733 17 294 0.0 0.0 0.00 0.00 0.00 62 1012.6
20260507021537 17 296 0.0 0.0 0.00 0.00 0.00 62 1012.6
20260507021038 18 252 0.0 0.0 0.00 0.00 0.00 61 1012.6
20260507020726 18 250 0.0 0.0 0.00 0.00 0.00 61 1012.6
20260507020524 18 288 0.0 0.0 0.00 0.00 0.00 60 1012.6
20260507020026 18 306 0.0 0.0 0.00 0.00 0.00 60 1012.6
20260507015731 18 302 0.0 0.0 0.00 0.00 0.00 60 1012.6
20260507015547 18 285 0.0 0.0 0.00 0.00 0.00 60 1012.6
20260507015028 18 261 0.0 0.0 0.00 0.00 0.00 59 1012.6
20260507014738 18 265 0.0 0.0 0.00 0.00 0.00 59 1012.6
20260507014535 18 242 0.0 0.0 0.00 0.00 0.00 59 1012.6
20260507014057 18 250 0.0 0.0 0.00 0.00 0.00 58 1012.4
20260507013745 18 260 0.0 0.0 0.00 0.00 0.00 58 1012.4
20260507013542 18 294 0.0 0.0 0.00 0.00 0.00 58 1012.4
20260507013025 18 290 0.0 0.0 0.00 0.00 0.00 57 1012.4
20260507012753 18 290 0.0 0.0 0.00 0.00 0.00 57 1012.3
20260507012531 19 298 0.0 0.0 0.00 0.00 0.00 57 1012.3
20260507012032 19 248 0.0 0.0 0.00 0.00 0.00 56 1012.3
20260507011739 19 239 0.0 0.0 0.00 0.00 0.00 56 1012.3
20260507011557 19 243 0.0 0.0 0.00 0.00 0.00 56 1012.3
20260507010728 19 241 0.0 0.0 0.00 0.00 0.00 56 1012.2
20260507010528 19 261 0.0 0.0 0.00 0.00 0.00 56 1012.2
20260507010029 19 290 0.0 0.0 0.00 0.00 0.00 56 1012.2
20260507005736 20 298 0.0 0.0 0.00 0.00 0.00 56 1012.2
20260507005533 20 269 0.0 0.0 0.00 0.00 0.00 55 1012.2
20260507005034 20 298 0.0 0.0 0.00 0.00 0.00 55 1012.2
20260507004723 20 267 0.0 0.0 0.00 0.00 0.00 55 1012.2
20260507004519 20 250 0.0 0.0 0.00 0.00 0.00 55 1012.2
20260507004021 20 262 0.0 0.0 0.00 0.00 0.00 54 1012.0
20260507003729 20 325 0.0 0.0 0.00 0.00 0.00 53 1012.0
20260507003549 20 250 0.0 0.0 0.00 0.00 0.00 53 1012.0
20260507003029 21 269 0.0 0.0 0.00 0.00 0.00 52 1012.0
20260507002735 21 283 0.0 0.0 0.00 0.00 0.00 52 1012.0
20260507002533 21 247 0.0 0.0 0.00 0.00 0.00 52 1012.0
20260507002055 21 271 0.0 0.0 0.00 0.00 0.00 48 1012.0
20260507001724 21 295 0.0 0.0 0.00 0.00 0.00 47 1012.0
20260507001522 21 291 0.0 0.0 0.00 0.00 0.00 47 1012.0
20260507001022 21 298 0.0 0.0 0.00 0.00 0.00 46 1011.9
20260507000751 21 248 0.0 0.0 0.00 0.00 0.00 46 1011.9
20260507000530 21 236 0.0 0.0 0.00 0.00 0.00 45 1011.9
20260507000031 22 255 0.0 0.0 0.00 0.00 0.00 44 1011.9
20260506235719 22 261 0.0 0.0 0.00 0.00 0.00 43 1011.9
20260506235538 22 264 0.0 0.0 0.00 0.00 0.00 42 1011.9
20260506235019 22 268 0.0 0.0 0.00 0.00 0.00 43 1011.9
20260506234727 22 297 0.0 0.0 0.00 0.00 0.00 41 1011.9
20260506234525 22 276 0.0 0.0 0.00 0.00 0.00 42 1011.9
20260506234027 22 286 0.0 0.0 0.00 0.00 0.00 42 1011.9
20260506233736 22 261 0.0 0.0 0.00 0.00 0.00 41 1011.9
20260506233533 22 246 0.0 0.0 0.00 0.00 0.00 41 1011.9
20260506233055 23 295 0.0 0.0 0.00 0.00 0.00 39 1011.9
20260506232721 22 319 0.0 0.0 0.00 0.00 0.00 40 1011.8
20260506232518 22 229 0.0 0.0 0.00 0.00 0.00 40 1011.8
20260506232024 23 262 0.0 0.0 0.00 0.00 0.00 40 1011.8
20260506231733 23 252 0.0 0.0 0.00 0.00 0.00 40 1011.8
20260506231531 23 261 0.0 0.0 0.00 0.00 0.00 40 1011.8
20260506231034 23 249 0.0 0.0 0.00 0.00 0.00 40 1012.0
20260506230724 23 296 0.0 0.0 0.00 0.00 0.00 39 1012.0
20260506230526 23 315 0.0 0.0 0.00 0.00 0.00 40 1012.0
20260506230029 23 279 0.0 0.0 0.00 0.00 0.00 41 1012.0
20260506225734 23 265 0.0 0.0 0.00 0.00 0.00 40 1012.2
20260506225555 23 267 0.0 0.0 0.00 0.00 0.00 40 1012.2
20260506225056 23 229 0.0 0.0 0.00 0.00 0.00 41 1012.2
20260506224721 23 231 0.0 0.0 0.00 0.00 0.00 42 1012.2
20260506224522 23 240 0.0 0.0 0.00 0.00 0.00 41 1012.2
20260506224024 23 237 0.0 0.0 0.00 0.00 0.00 41 1012.4
20260506223727 23 254 0.0 0.0 0.00 0.00 0.00 42 1012.4
20260506223529 23 255 0.0 0.0 0.00 0.00 0.00 42 1012.4
20260506223031 22 297 0.0 0.0 0.00 0.00 0.00 42 1012.4
20260506222735 22 284 0.0 0.0 0.00 0.00 0.00 43 1012.4
20260506222537 22 296 0.0 0.0 0.00 0.00 0.00 42 1012.5
20260506222020 22 287 0.0 0.0 0.00 0.00 0.00 43 1012.5
20260506221726 22 254 0.0 0.0 0.00 0.00 0.00 44 1012.5
20260506221528 22 254 0.0 0.0 0.00 0.00 0.00 44 1012.5
20260506221029 22 275 0.0 0.0 0.00 0.00 0.00 44 1012.6
20260506220754 22 244 0.0 0.0 0.00 0.00 0.00 45 1012.6
20260506220535 22 313 0.0 0.0 0.00 0.00 0.00 46 1012.6
20260506220037 22 267 0.0 0.0 0.00 0.00 0.00 46 1012.6
20260506215740 22 258 0.0 0.0 0.00 0.00 0.00 46 1012.6
20260506215519 22 245 0.0 0.0 0.00 0.00 0.00 47 1012.7
20260506215022 22 281 0.0 0.0 0.00 0.00 0.00 47 1012.7
20260506214727 22 303 0.0 0.0 0.00 0.00 0.00 46 1012.7
20260506214529 22 276 0.0 0.0 0.00 0.00 0.00 47 1012.7
20260506214034 22 275 0.0 0.0 0.00 0.00 0.00 47 1012.9
20260506213724 22 267 0.0 0.0 0.00 0.00 0.00 47 1012.9
20260506213542 22 263 0.0 0.0 0.00 0.00 0.00 48 1012.9
20260506213023 22 262 0.0 0.0 0.00 0.00 0.00 48 1012.9
20260506212726 22 289 0.0 0.0 0.00 0.00 0.00 49 1013.0
20260506212528 22 284 0.0 0.0 0.00 0.00 0.00 49 1013.0
20260506212030 22 254 0.0 0.0 0.00 0.00 0.00 48 1013.0
20260506211756 22 262 0.0 0.0 0.00 0.00 0.00 47 1013.0
20260506211537 22 234 0.0 0.0 0.00 0.00 0.00 47 1013.0
20260506211020 22 259 0.0 0.0 0.00 0.00 0.00 47 1013.0
20260506210729 22 298 0.0 0.0 0.00 0.00 0.00 47 1013.0
20260506210529 22 271 0.0 0.0 0.00 0.00 0.00 48 1013.0
20260506210034 22 303 0.0 0.0 0.00 0.00 0.00 47 1013.0
20260506205724 22 289 0.0 0.0 0.00 0.00 0.00 47 1013.0
20260506205542 22 291 0.0 0.0 0.00 0.00 0.00 47 1013.0
20260506205023 22 272 0.0 0.0 0.00 0.00 0.00 48 1013.0
20260506204731 22 263 0.0 0.0 0.00 0.00 0.00 48 1013.0
20260506204549 22 291 0.0 0.0 0.00 0.00 0.00 48 1013.0
20260506204050 22 264 0.0 0.0 0.00 0.00 0.00 47 1013.2
20260506203720 22 300 0.0 0.0 0.00 0.00 0.00 47 1013.2
20260506203521 22 312 0.0 0.0 0.00 0.00 0.00 48 1013.2
20260506203022 22 260 0.0 0.0 0.00 0.00 0.00 49 1013.2
20260506202749 22 236 0.0 0.0 0.00 0.00 0.00 49 1013.4
20260506202530 22 238 0.0 0.0 0.00 0.00 0.00 49 1013.4
20260506202035 22 240 0.0 0.0 0.00 0.00 0.00 48 1013.4
20260506201724 22 240 0.0 0.0 0.00 0.00 0.00 49 1013.4
20260506201522 22 259 0.0 0.0 0.00 0.00 0.00 48 1013.4
20260506201043 22 248 0.0 0.0 0.00 0.00 0.00 48 1013.5
20260506200730 22 240 0.0 0.0 0.00 0.00 0.00 49 1013.5
20260506200528 22 261 0.0 0.0 0.00 0.00 0.00 48 1013.5
20260506200030 22 290 0.0 0.0 0.00 0.00 0.00 47 1013.5
20260506195737 22 301 0.0 0.0 0.00 0.00 0.00 48 1013.5
20260506195533 22 226 0.0 0.0 0.00 0.00 0.00 49 1013.7
20260506195054 21 216 0.0 0.0 0.00 0.00 0.00 48 1013.7
20260506194722 21 223 0.0 0.0 0.00 0.00 0.00 50 1013.7
20260506194538 21 243 0.0 0.0 0.00 0.00 0.00 50 1013.7
20260506194019 21 300 0.0 0.0 0.00 0.00 0.00 50 1013.9
20260506193731 21 282 0.0 0.0 0.00 0.00 0.00 51 1013.9
20260506193529 21 264 0.0 0.0 0.00 0.00 0.00 50 1013.9
20260506193029 21 267 0.0 0.0 0.00 0.00 0.00 51 1013.9
20260506192759 21 270 0.0 0.0 0.00 0.00 0.00 50 1013.9
20260506192536 21 270 0.0 0.0 0.00 0.00 0.00 49 1014.0
20260506192038 21 320 0.0 0.0 0.00 0.00 0.00 46 1014.0
20260506191729 21 279 0.0 0.0 0.00 0.00 0.00 46 1014.0
20260506191527 21 340 0.0 0.0 0.00 0.00 0.00 46 1014.0
20260506191048 21 291 0.0 0.0 0.00 0.00 0.00 47 1014.2
20260506190735 21 227 0.0 0.0 0.00 0.00 0.00 46 1014.2
20260506190533 21 231 0.0 0.0 0.00 0.00 0.00 47 1014.2
20260506190058 21 230 0.0 0.0 0.00 0.00 0.00 46 1014.2
20260506185724 21 260 0.0 0.0 0.00 0.00 0.00 45 1014.3
20260506185522 21 269 0.0 0.0 0.00 0.00 0.00 45 1014.3
20260506185023 20 264 0.0 0.0 0.00 0.00 0.00 45 1014.3
20260506184736 20 307 0.0 0.0 0.00 0.00 0.00 45 1014.3
20260506184532 20 306 0.0 0.0 0.00 0.00 0.00 46 1014.3
20260506184036 20 306 0.0 0.0 0.00 0.00 0.00 45 1014.6
20260506183725 20 315 0.0 0.0 0.00 0.00 0.00 45 1014.6
20260506183543 20 337 0.0 0.0 0.00 0.00 0.00 45 1014.6
20260506183024 20 288 0.0 0.0 0.00 0.00 0.00 45 1014.6
20260506182730 20 251 0.0 0.0 0.00 0.00 0.00 45 1014.6
20260506182527 20 249 0.0 0.0 0.00 0.00 0.00 46 1014.6
20260506182034 20 262 0.0 0.0 0.00 0.00 0.00 48 1014.6
20260506181757 20 263 0.0 0.0 0.00 0.00 0.00 48 1014.6
20260506181517 20 263 0.0 0.0 0.00 0.00 0.00 48 1014.6
20260506181022 20 254 0.0 0.0 0.00 0.00 0.00 48 1014.6
20260506180727 20 267 0.0 0.0 0.00 0.00 0.00 50 1014.6
20260506180528 20 248 0.0 0.0 0.00 0.00 0.00 50 1014.6
20260506180049 19 229 0.0 0.0 0.00 0.00 0.00 51 1014.6
20260506175730 19 229 0.0 0.0 0.00 0.00 0.00 51 1014.6
20260506175534 19 278 0.0 0.0 0.00 0.00 0.00 52 1014.6
20260506175036 19 288 0.0 0.0 0.00 0.00 0.00 52 1014.6
20260506174723 19 254 0.0 0.0 0.00 0.00 0.00 51 1014.6
20260506174525 19 254 0.0 0.0 0.00 0.00 0.00 53 1014.6
20260506174027 18 323 0.0 0.0 0.00 0.00 0.00 53 1014.7
20260506173732 18 323 0.0 0.0 0.00 0.00 0.00 52 1014.7
20260506173537 18 261 0.0 0.0 0.00 0.00 0.00 54 1014.7
20260506173019 18 271 0.0 0.0 0.00 0.00 0.00 55 1014.7
20260506172729 18 286 0.0 0.0 0.00 0.00 0.00 56 1014.7
20260506172549 18 313 0.0 0.0 0.00 0.00 0.00 56 1014.7
20260506172029 17 338 0.0 0.0 0.00 0.00 0.00 56 1014.7
20260506171722 17 338 0.0 0.0 0.00 0.00 0.00 57 1014.7
20260506171519 17 303 0.0 0.0 0.00 0.00 0.00 57 1014.7
20260506171022 17 244 0.0 0.0 0.00 0.00 0.00 58 1014.8
20260506170733 17 255 0.0 0.0 0.00 0.00 0.00 59 1014.8
20260506170533 17 265 0.0 0.0 0.00 0.00 0.00 59 1014.8
20260506170055 17 254 0.0 0.0 0.00 0.00 0.00 59 1014.8
20260506165722 17 240 0.0 0.0 0.00 0.00 0.00 59 1014.8
20260506165520 17 234 0.0 0.0 0.00 0.00 0.00 59 1014.8
20260506165020 17 213 0.0 0.0 0.00 0.00 0.00 61 1014.8
20260506164748 17 186 0.0 0.0 0.00 0.00 0.00 62 1014.8
20260506164525 17 183 0.0 0.0 0.00 0.00 0.00 63 1014.8
20260506164027 16 230 0.0 0.0 0.00 0.00 0.00 64 1014.9
20260506163734 16 230 0.0 0.0 0.00 0.00 0.00 65 1014.9
20260506163535 16 230 0.0 0.0 0.00 0.00 0.00 65 1014.9
20260506163057 16 230 0.0 0.0 0.00 0.00 0.00 65 1014.9
20260506162723 16 230 0.0 0.0 0.00 0.00 0.00 66 1015.0
20260506162540 16 229 0.0 0.0 0.00 0.00 0.00 67 1014.1
20260506162020 15 230 0.0 0.0 0.00 0.00 0.00 68 1014.1
20260506161730 15 230 0.0 0.0 0.00 0.00 0.00 68 1014.1
20260506161548 15 230 0.0 0.0 0.00 0.00 0.00 68 1014.1
20260506161028 15 227 0.0 0.0 0.00 0.00 0.00 70 1014.1
20260506160736 15 221 0.0 0.0 0.00 0.00 0.00 71 1014.1
20260506160532 15 221 0.0 0.0 0.00 0.00 0.00 71 1014.1
20260506160034 14 221 0.0 0.0 0.00 0.00 0.00 71 1014.1
20260506155740 14 178 0.0 0.0 0.00 0.00 0.00 71 1014.1
20260506155537 14 178 0.0 0.0 0.00 0.00 0.00 71 1014.1
20260506155039 14 173 0.0 0.0 0.00 0.00 0.00 71 1014.1
20260506154728 14 176 0.0 0.0 0.00 0.00 0.00 71 1014.1
20260506154529 13 176 0.0 0.0 0.00 0.00 0.00 71 1014.1
20260506154030 13 176 0.0 0.0 0.00 0.00 0.00 73 1014.1
20260506153738 13 175 0.0 0.0 0.00 0.00 0.00 74 1014.1
20260506153534 13 177 0.0 0.0 0.00 0.00 0.00 74 1014.1
20260506153038 13 180 0.0 0.0 0.00 0.00 0.00 74 1014.1
20260506152725 13 180 0.0 0.0 0.00 0.00 0.00 74 1014.0
20260506152543 13 180 0.0 0.0 0.00 0.00 0.00 74 1014.0
20260506152023 13 190 0.0 0.0 0.00 0.00 0.00 76 1014.0
20260506151731 13 150 0.0 0.0 0.00 0.00 0.00 76 1014.0
20260506151528 13 87 0.0 0.0 0.00 0.00 0.00 77 1014.0
20260506151029 13 67 0.0 0.0 0.00 0.00 0.00 78 1014.0
20260506150738 13 67 0.0 0.0 0.00 0.00 0.00 78 1014.0
20260506150538 12 61 0.0 0.0 0.00 0.00 0.00 78 1014.0
20260506150023 12 61 0.0 0.0 0.00 0.00 0.00 79 1014.0
20260506145725 12 61 0.0 0.0 0.00 0.00 0.00 79 1014.1
20260506145527 12 61 0.0 0.0 0.00 0.00 0.00 79 1014.1
20260506145048 12 61 0.0 0.0 0.00 0.00 0.00 80 1014.1
20260506144730 12 61 0.0 0.0 0.00 0.00 0.00 80 1014.1
20260506144528 12 61 0.0 0.0 0.00 0.00 0.00 80 1014.1
20260506144037 12 61 0.0 0.0 0.00 0.00 0.00 80 1014.1
20260506143721 12 61 0.0 0.0 0.00 0.00 0.00 80 1014.1
20260506143525 11 61 0.0 0.0 0.00 0.00 0.00 80 1014.1
20260506143027 11 61 0.0 0.0 0.00 0.00 0.00 80 1014.1
20260506142730 11 60 0.0 0.0 0.00 0.00 0.00 80 1014.1
20260506142534 11 61 0.0 0.0 0.00 0.00 0.00 79 1014.1
20260506142054 11 61 0.0 0.0 0.00 0.00 0.00 79 1014.1
20260506141739 11 60 0.0 0.0 0.00 0.00 0.00 79 1014.1
20260506141520 11 61 0.0 0.0 0.00 0.00 0.00 79 1014.1
20260506141021 10 60 0.0 0.0 0.00 0.00 0.00 79 1014.1
20260506140728 10 63 0.0 0.0 0.00 0.00 0.00 79 1014.1
20260506140530 10 61 0.0 0.0 0.00 0.00 0.00 79 1014.1
20260506140032 10 60 0.0 0.0 0.00 0.00 0.00 79 1014.1
20260506135734 10 60 0.0 0.0 0.00 0.00 0.00 79 1014.1
20260506135534 10 60 0.0 0.0 0.00 0.00 0.00 79 1014.0
20260506135036 10 60 0.0 0.0 0.00 0.00 0.00 79 1014.0
20260506134725 10 60 0.0 0.0 0.00 0.00 0.00 79 1014.0
20260506134525 10 60 0.0 0.0 0.00 0.00 0.00 79 1014.0
20260506134029 10 60 0.0 0.0 0.00 0.00 0.00 79 1013.6
20260506133737 10 60 0.0 0.0 0.00 0.00 0.00 79 1013.6
20260506133554 10 60 0.0 0.0 0.00 0.00 0.00 79 1013.6
20260506133037 10 60 0.0 0.0 0.00 0.00 0.00 79 1013.6
20260506132724 10 69 0.0 0.0 0.00 0.00 0.00 79 1013.5
20260506132544 10 69 0.0 0.0 0.00 0.00 0.00 79 1013.5
20260506132026 10 69 0.0 0.0 0.00 0.00 0.00 79 1013.5
20260506131734 10 69 0.0 0.0 0.00 0.00 0.00 79 1013.5
20260506131535 10 69 0.0 0.0 0.00 0.00 0.00 79 1013.5
20260506131039 10 69 0.0 0.0 0.00 0.00 0.00 79 1013.5
20260506130728 10 69 0.0 0.0 0.00 0.00 0.00 79 1013.5
20260506130525 10 69 0.0 0.0 0.00 0.00 0.00 79 1013.5
20260506130027 10 69 0.0 0.0 0.00 0.00 0.00 79 1013.5
20260506125733 10 69 0.0 0.0 0.00 0.00 0.00 79 1013.5
20260506125530 10 69 0.0 0.0 0.00 0.00 0.00 79 1013.3
20260506125031 10 69 0.0 0.0 0.00 0.00 0.00 80 1013.3
20260506124739 10 69 0.0 0.0 0.00 0.00 0.00 80 1013.3
20260506124536 10 69 0.0 0.0 0.00 0.00 0.00 80 1013.3
20260506124037 10 69 0.0 0.0 0.00 0.00 0.00 80 1013.0
20260506123724 10 69 0.0 0.0 0.00 0.00 0.00 80 1013.0
20260506123520 10 69 0.0 0.0 0.00 0.00 0.00 80 1013.0
20260506123021 10 69 0.0 0.0 0.00 0.00 0.00 80 1013.0
20260506122747 10 69 0.0 0.0 0.00 0.00 0.00 80 1012.9
20260506122524 10 69 0.0 0.0 0.00 0.00 0.00 79 1012.9
20260506122046 10 69 0.0 0.0 0.00 0.00 0.00 79 1012.9
20260506121734 10 69 0.0 0.0 0.00 0.00 0.00 79 1012.9
20260506121532 10 69 0.0 0.0 0.00 0.00 0.00 79 1012.9
20260506121034 10 69 0.0 0.0 0.00 0.00 0.00 79 1012.9
20260506120722 10 69 0.0 0.0 0.00 0.00 0.00 79 1012.9
20260506120538 10 69 0.0 0.0 0.00 0.00 0.00 79 1012.9
20260506120040 10 69 0.0 0.0 0.00 0.00 0.00 78 1012.9
20260506115746 10 69 0.0 0.0 0.00 0.00 0.00 78 1012.9
20260506115542 10 69 0.0 0.0 0.00 0.00 0.00 78 1012.9
20260506115026 10 69 0.0 0.0 0.00 0.00 0.00 77 1012.9
20260506114733 10 69 0.0 0.0 0.00 0.00 0.00 77 1012.9
20260506114531 10 69 0.0 0.0 0.00 0.00 0.00 77 1012.9
20260506114033 10 69 0.0 0.0 0.00 0.03 0.00 77 1012.9
20260506113740 10 69 0.0 0.0 0.00 0.03 0.00 76 1012.9
20260506113517 10 69 0.0 0.0 0.00 0.03 0.00 76 1012.9